Temperature
12 13 14 15 18 19 20 21 20 19 19 18 19 20 21 21 21 19 14 14 15 15 16 16 16 16 16 16 16 16 16 16 16 16 17 17 16 16 16 16 16 16 16 16 16 16 15 15 15
12 13 14 16 19 20 20 20 19 19 18 16 17 18 19 17 15 14 14 14 15 15 15 16 16 16 16 16 16 16 16 16 16 16 17 16 16 16 16 16 16 16 16 16 16 16 16 15 15
12 13 15 18 18 21 21 19 19 17 16 16 17 17 17 16 14 13 13 14 14 15 15 15 16 16 16 16 16 16 16 16 16 16 16 16 16 16 16 16 16 16 16 16 16 16 16 15 15
12 13 15 18 18 19 19 18 18 17 16 16 17 16 14 12 12 13 14 14 14 15 15 15 15 15 16 16 16 16 16 16 16 16 16 16 16 16 16 16 16 16 16 16 16 16 15 15 15
12 15 16 17 17 17 17 17 17 18 17 16 16 16 14 12 12 13 13 14 14 15 15 15 15 15 15 15 15 16 16 16 16 16 16 16 16 16 16 16 16 16 16 16 16 15 15 15 15
13 15 17 17 17 16 16 16 16 17 16 15 16 16 13 12 12 13 13 14 14 14 15 15 15 15 15 15 15 15 15 15 15 16 16 15 16 16 15 16 16 16 16 15 15 15 15 15 15
13 15 16 17 16 16 16 15 16 17 17 15 15 15 13 12 12 13 13 14 14 14 14 14 14 15 15 15 15 15 15 15 15 15 15 15 15 15 15 15 15 15 15 15 15 15 15 15 15
12 15 15 16 16 16 15 14 14 16 15 13 14 15 13 11 12 12 13 13 14 14 14 14 14 14 14 15 15 15 15 15 15 15 15 15 15 15 15 15 15 15 15 15 15 15 15 15 15
11 15 15 15 16 15 14 14 13 12 13 12 11 12 11 12 12 12 13 13 13 14 14 14 14 14 14 14 14 15 15 15 15 15 15 15 15 15 15 15 15 15 15 15 15 15 15 15 15
12 14 14 14 15 15 14 14 13 13 13 12 11 10 11 11 12 12 12 12 13 13 13 14 14 14 14 14 14 14 14 14 14 14 15 15 15 15 15 15 15 15 14 14 14 14 14 14 14
12 12 12 12 12 13 13 13 12 15 14 13 12 11 11 11 12 12 12 12 12 13 13 13 13 14 14 14 14 14 14 14 14 14 14 14 14 14 14 14 14 14 14 14 14 14 14 14 14
11 11 11 11 11 12 12 12 12 12 12 11 10 10 11 11 11 11 12 12 12 12 13 13 13 13 13 14 14 14 14 14 14 14 14 14 14 14 14 14 14 14 14 14 14 14 14 14 14
11 10 10 10 10 10 11 11 11 10 10 10 10 10 10 10 11 11 11 11 12 12 12 12 13 13 13 13 13 13 13 14 14 14 14 14 14 14 14 14 14 14 14 14 14 14 14 14 13
11 11 10 10 10 10 11 11 11 10 9 9 9 9 10 10 10 10 11 11 11 11 12 12 12 12 13 13 13 13 13 13 13 13 13 13 13 13 13 13 13 13 13 13 13 13 13 13 13
10 12 11 11 11 10 12 11 11 10 9 9 9 9 9 9 10 10 10 11 11 11 11 11 12 12 12 12 12 12 12 12 12 13 13 13 13 13 13 13 13 13 13 13 13 13 13 13 13
12 12 12 11 11 10 12 12 11 9 10 10 10 9 9 9 9 10 10 10 10 11 11 11 11 11 12 12 12 12 12 12 12 12 12 12 12 12 12 12 12 12 12 12 12 12 12 12 12
12 12 12 11 10 11 12 12 11 9 10 10 10 9 9 9 9 9 10 10 10 10 10 10 11 11 11 11 11 11 11 11 11 11 11 11 12 12 11 11 11 11 11 11 12 11 12 12 12
12 12 11 11 10 11 11 11 11 10 10 10 10 10 9 9 8 9 9 9 9 9 10 10 10 10 10 10 11 11 10 10 11 11 11 11 11 11 11 11 11 11 11 11 11 11 11 11 11
12 12 11 10 10 11 11 11 11 10 10 10 10 10 9 9 8 8 9 9 9 9 9 9 9 10 10 10 10 10 10 10 10 10 10 10 10 10 10 10 10 10 10 10 10 10 10 10 10
12 11 11 10 10 11 11 11 11 11 10 10 10 10 9 9 8 8 8 8 8 9 9 9 9 9 9 9 9 9 9 9 9 9 10 10 10 10 10 10 10 10 10 10 10 10 10 10 10
10 11 11 10 10 10 11 12 12 11 9 9 9 9 9 8 8 8 8 8 8 8 8 8 8 9 9 9 9 9 9 9 9 9 9 9 9 9 9 9 9 9 9 9 9 9 9 9 9
10 9 10 10 11 11 11 12 14 12 11 10 9 9 9 8 8 8 8 8 8 8 8 8 8 8 8 8 8 8 8 8 8 8 8 8 9 9 9 9 9 9 9 9 9 9 8 8 8
9 9 9 10 10 11 11 11 14 11 11 12 11 9 9 8 8 8 8 8 8 8 8 8 8 8 8 8 7 7 7 7 7 8 8 8 8 8 8 8 8 8 8 8 8 8 8 8 8
8 9 9 10 10 10 10 10 12 13 12 12 11 10 8 8 7 8 8 8 8 7 7 7 7 7 7 7 7 7 7 7 7 7 7 7 8 8 7 8 8 7 7 7 8 8 8 8 7
9 10 10 10 11 11 9 9 11 12 11 11 11 10 8 8 7 7 7 7 7 7 7 7 7 7 7 7 7 7 6 6 6 6 6 7 7 7 7 7 7 7 7 7 7 7 7 7 7
9 9 10 11 11 12 8 9 12 11 10 9 8 8 8 8 7 7 7 7 7 7 7 7 7 6 6 6 6 6 6 6 6 6 6 6 6 6 6 6 6 7 7 7 7 7 7 6 6
9 9 9 9 8 9 11 10 11 10 10 9 9 8 8 7 7 7 7 7 7 7 7 7 6 6 6 6 6 6 6 5 5 5 5 5 5 6 6 6 6 6 6 6 6 6 6 6 6
8 8 8 9 9 11 11 11 11 11 11 10 10 9 8 7 7 7 7 7 7 7 7 6 6 6 6 6 6 6 5 5 5 5 5 5 5 5 5 5 5 5 6 6 6 6 6 6 5
8 8 8 9 9 10 11 12 11 11 10 10 10 9 8 8 7 7 7 7 7 7 7 6 6 6 6 6 6 5 5 5 5 5 5 5 4 4 4 5 5 5 5 5 5 5 5 5 5
8 8 8 9 8 8 9 11 11 10 9 9 9 8 8 8 8 7 7 7 7 7 6 6 6 6 6 6 5 5 5 5 5 4 4 4 4 4 4 4 4 4 4 4 4 4 4 4 4
Wind_Speed
3 3 4 5 6 7 13 8 5 8 7 4 3 4 5 4 2 5 4 4 3 3 5 7 8 9 9 9 9 9 9 9 8 8 8 7 7 6 6 6 6 6 6 6 6 7 7 8 9
3 4 5 6 9 11 11 10 9 7 7 7 5 4 5 4 5 5 3 4 3 4 5 7 9 9 8 8 8 8 8 8 8 7 7 6 6 5 5 5 5 6 6 6 7 7 6 8 8
4 3 6 6 9 13 9 9 10 8 7 5 5 3 4 5 4 3 4 3 3 5 6 8 9 8 7 7 7 7 7 7 7 7 6 5 5 4 4 4 5 5 6 6 7 6 6 7 8
5 4 4 8 13 8 4 7 10 11 6 3 6 7 5 4 3 3 4 3 5 6 7 8 9 8 7 7 6 5 6 6 6 5 5 4 4 4 3 4 4 5 6 6 7 7 7 7 8
4 5 8 10 12 6 4 6 10 10 7 6 7 7 6 4 5 5 5 5 6 7 7 8 9 8 7 7 5 5 4 5 4 4 4 3 3 3 3 3 4 4 6 6 7 7 8 8 8
6 5 9 13 11 7 6 5 8 9 7 7 8 8 6 4 5 5 6 7 8 8 8 9 9 8 7 7 6 4 3 3 3 3 3 3 3 2 2 3 4 4 5 6 6 8 8 8 8
6 7 10 12 11 8 6 5 7 9 9 7 5 7 7 5 4 5 6 8 8 9 8 8 7 7 6 6 6 5 4 3 2 1 2 2 2 2 2 2 3 4 4 5 6 7 8 8 9
2 5 7 10 12 9 7 5 5 6 7 4 2 6 7 5 4 5 7 8 9 9 9 8 7 6 5 4 6 5 5 4 2 1 0 1 2 3 3 3 3 4 4 5 6 7 8 8 9
2 5 9 9 10 9 8 6 4 4 7 4 4 5 7 7 6 6 6 7 8 9 8 8 7 7 5 4 4 3 3 3 2 0 1 2 4 4 4 4 3 4 4 5 6 7 8 8 9
2 5 5 3 4 8 9 8 7 8 8 6 8 9 8 7 7 7 7 7 7 8 8 8 8 7 6 4 3 2 2 2 2 2 2 3 3 3 4 3 4 5 6 7 7 8 8 10 9
2 3 4 4 5 9 9 7 4 9 6 6 9 10 8 8 7 7 7 7 7 7 8 8 8 7 7 5 4 3 2 2 2 3 3 3 3 3 3 3 4 6 7 7 7 9 9 9 8
4 4 4 5 5 6 7 7 6 5 6 8 9 9 8 8 7 7 7 6 6 7 8 8 8 7 7 6 4 3 3 3 3 3 4 4 3 3 3 4 4 5 5 6 6 6 8 9 10
6 6 7 8 9 9 10 9 7 7 8 9 9 9 8 7 7 6 6 6 6 7 7 8 8 8 7 6 5 4 3 3 4 4 4 4 4 4 4 4 5 5 6 6 6 7 8 9 9
8 11 10 8 8 5 9 7 5 6 8 9 8 8 6 6 5 5 5 5 6 6 6 7 7 8 7 6 5 4 4 4 4 3 4 5 4 4 4 5 5 5 6 7 7 8 8 8 8
9 12 10 6 5 3 5 6 3 5 7 8 7 6 5 4 4 4 4 4 4 5 6 6 6 7 7 6 6 5 4 4 4 4 4 5 5 5 5 5 5 5 6 7 7 8 8 7 8
5 7 6 4 3 2 3 4 4 4 6 6 6 5 4 3 3 2 3 3 4 4 5 6 6 6 7 6 5 4 4 4 4 4 4 5 6 6 5 5 5 6 6 6 6 6 7 8 8
4 7 7 4 4 2 2 4 4 4 6 6 5 4 4 3 2 1 2 2 3 3 4 5 6 7 7 6 5 4 4 4 4 4 4 5 6 6 6 5 5 6 5 5 6 6 7 8 8
7 7 5 4 3 3 4 4 4 4 6 6 6 5 5 4 3 1 1 1 2 3 4 4 5 6 6 5 4 3 3 4 4 4 5 6 6 6 6 5 6 5 5 5 6 7 7 7 8
8 8 7 4 3 2 3 3 4 5 6 7 7 7 6 5 3 2 1 0 1 2 3 4 5 6 6 5 4 4 4 4 4 4 6 6 7 7 6 5 5 5 5 6 7 7 8 7 6
9 9 6 4 4 1 1 4 5 6 7 7 8 7 7 6 5 3 2 1 1 2 3 4 5 5 5 4 4 3 5 4 4 4 6 7 7 7 6 5 5 5 5 6 6 6 6 6 5
8 5 5 3 2 2 1 3 5 5 6 6 7 7 7 7 6 4 3 2 2 2 3 3 4 4 5 5 4 4 3 3 3 4 5 6 7 7 6 6 5 5 5 5 6 6 7 7 6
4 3 4 3 1 0 1 3 5 6 7 8 8 8 8 7 6 5 4 3 3 2 2 3 3 4 4 4 4 4 4 4 4 5 5 6 6 6 7 7 6 5 5 5 6 6 6 7 7
4 3 3 2 1 1 1 3 4 4 7 8 9 9 8 7 7 6 5 4 3 2 2 2 3 3 3 4 4 4 4 4 4 5 5 6 5 6 7 7 6 6 5 6 6 6 6 6 7
4 4 3 2 1 3 2 4 5 4 6 5 6 7 7 7 6 5 4 4 3 3 2 2 3 3 3 3 3 4 5 5 5 5 5 5 5 5 6 7 6 6 5 6 6 6 6 6 7
1 2 1 2 2 3 2 4 7 4 4 5 4 5 5 6 6 5 5 5 4 4 3 3 3 3 3 3 3 4 4 5 5 5 5 5 5 5 6 7 6 6 6 6 6 5 5 5 6
1 1 1 2 3 2 3 6 5 2 3 4 5 5 5 6 6 6 6 5 5 5 4 4 4 4 3 3 3 3 4 3 3 4 4 5 5 5 7 7 7 7 7 6 5 5 5 5 5
1 1 2 0 1 4 4 5 7 3 4 4 4 5 5 6 6 6 6 5 5 5 5 4 4 4 3 3 3 3 3 3 3 4 4 4 4 5 6 6 6 6 6 6 5 4 5 5 5
2 2 2 2 2 4 4 5 4 3 3 3 4 5 5 5 5 6 6 6 5 5 5 5 5 5 4 3 3 3 3 3 3 3 3 4 5 5 5 5 6 6 6 5 5 4 5 4 4
3 2 2 1 2 3 4 3 1 3 2 3 4 4 5 6 6 6 6 6 6 5 5 5 5 5 4 4 3 3 3 3 3 3 3 3 4 4 5 5 5 5 5 5 5 4 5 4 4
3 4 4 3 3 3 5 6 1 3 4 5 5 5 6 6 6 6 6 6 6 6 6 6 5 5 5 4 4 3 3 2 2 2 3 3 3 3 4 4 4 4 5 5 5 5 5 4 4
Wind_Direction
195 194 195 189 192 213 223 203 187 170 174 165 141 159 152 143 137 113 87 52 49 108 123 131 127 128 128 126 124 125 128 130 134 139 143 146 146 146 148 151 153 145 138 134 127 123 121 123 121
192 186 188 197 210 209 212 200 185 170 147 135 121 125 121 107 67 86 88 38 59 95 107 114 120 126 129 126 126 129 129 130 132 136 139 145 146 150 155 156 156 153 149 142 138 134 131 134 132
173 201 193 193 215 216 195 180 175 144 140 149 133 105 101 104 85 80 45 37 90 92 91 96 105 112 121 124 124 128 130 130 132 136 139 143 144 150 163 167 159 157 154 153 152 149 149 149 148
176 177 197 211 209 211 182 150 155 147 143 136 142 118 96 59 47 47 37 79 103 89 82 92 96 99 104 111 117 121 127 130 132 135 138 145 151 150 151 154 159 167 168 166 167 166 165 163 163
193 185 190 204 205 190 169 140 157 159 150 141 146 125 106 68 56 55 66 81 88 78 70 85 87 89 92 95 100 108 118 125 133 140 144 147 151 159 157 157 160 172 178 181 182 181 179 178 177
181 195 197 196 187 174 163 157 162 156 139 136 139 126 109 85 66 60 74 80 75 71 65 70 76 76 80 82 81 88 106 123 133 139 143 148 145 143 153 168 174 180 185 189 191 191 193 192 193
196 194 199 187 176 175 162 149 163 154 142 130 133 126 124 110 66 74 83 80 72 64 60 57 60 71 77 75 66 64 67 80 97 121 142 149 157 162 160 170 187 198 199 200 200 200 203 206 204
210 177 176 178 174 170 150 131 115 144 122 96 106 136 138 129 104 98 87 76 67 56 49 43 44 49 56 67 62 56 53 48 45 44 228 198 188 189 190 204 204 212 213 211 210 209 211 213 212
233 196 182 176 174 154 149 139 107 95 114 89 68 79 105 119 122 107 93 73 61 50 41 36 30 29 29 40 49 58 59 41 17 347 354 234 227 223 214 225 223 228 226 224 222 220 219 217 214
207 192 173 154 149 145 142 133 131 139 124 112 103 94 103 113 108 97 83 68 52 41 33 28 24 20 18 20 20 23 24 19 355 336 302 270 260 252 257 226 231 240 236 232 229 228 224 225 227
131 151 128 106 113 135 134 121 128 147 131 134 133 126 117 108 96 85 74 63 50 40 31 24 18 15 15 11 9 5 358 350 339 342 327 299 285 273 262 253 238 242 238 241 233 228 233 235 237
125 91 103 112 107 121 127 124 107 91 102 112 117 121 116 105 91 78 71 59 48 41 31 24 16 15 13 8 7 3 359 352 345 337 333 314 301 288 279 268 264 258 250 250 246 246 245 246 244
114 104 84 89 92 99 103 103 104 96 105 112 113 112 107 100 91 79 69 61 50 40 29 22 17 16 10 8 5 1 351 343 339 333 327 324 307 294 288 277 270 266 265 258 254 253 251 250 251
117 110 100 86 87 87 101 94 100 111 122 120 118 113 106 99 94 85 70 56 45 36 25 19 17 14 10 6 3 357 347 342 333 326 324 319 311 301 293 285 280 275 269 265 260 257 257 256 253
120 111 95 66 76 93 105 89 109 130 138 133 127 121 115 102 90 75 62 50 37 28 19 16 12 8 6 3 359 352 346 340 335 330 328 324 315 306 296 288 285 283 276 271 265 262 259 257 255
130 134 119 60 48 51 169 145 135 154 158 152 149 143 139 126 106 75 59 48 31 22 17 12 7 3 1 356 349 347 343 342 337 332 330 329 322 313 303 290 285 288 282 274 267 263 260 257 257
140 143 130 103 38 66 146 153 154 170 177 175 175 173 169 161 149 107 66 43 26 16 11 8 6 1 356 348 342 340 338 340 338 338 337 332 323 316 304 294 294 292 284 276 270 267 264 263 261
148 139 126 113 49 92 137 160 168 187 196 198 198 196 193 193 188 165 123 44 23 15 9 7 6 2 353 346 342 338 339 344 345 345 344 338 333 323 312 302 300 297 287 280 273 270 266 264 265
126 127 112 82 49 88 148 190 212 204 207 212 213 211 208 210 201 187 192 225 4 12 7 5 2 1 357 352 345 339 340 338 341 346 344 342 337 334 324 314 307 302 289 288 287 278 272 267 268
112 115 105 88 48 62 163 245 235 220 217 220 221 218 217 216 210 206 212 214 311 350 354 353 354 355 355 347 334 317 316 317 327 333 340 343 341 339 330 320 311 307 298 294 293 288 283 278 267
75 100 112 106 79 94 290 240 206 201 217 225 228 229 227 224 223 217 219 231 259 309 335 338 342 344 346 340 330 322 316 310 320 335 337 341 340 339 335 325 314 307 299 295 294 289 281 276 268
90 72 105 116 161 140 315 259 218 204 220 222 221 219 221 222 225 226 228 237 250 276 305 319 328 334 338 336 329 326 322 319 321 323 323 329 337 341 340 332 325 314 303 294 289 284 278 276 272
103 102 102 104 118 220 215 254 246 200 234 228 218 216 219 220 223 226 232 240 248 262 286 306 317 323 330 330 323 315 309 308 310 315 321 329 333 338 341 338 331 323 313 305 297 290 283 276 272
127 124 105 116 192 236 215 237 258 216 225 221 212 213 217 221 224 228 231 236 241 249 266 291 304 312 319 319 315 313 308 307 308 315 322 327 327 330 339 336 330 324 317 313 305 295 290 284 278
128 168 156 196 219 235 159 243 255 252 238 240 236 229 225 222 222 224 227 232 238 244 253 268 283 296 308 307 308 309 307 303 302 311 316 320 321 325 332 332 326 323 319 317 312 304 298 293 287
67 304 271 249 248 258 207 242 257 289 270 260 254 249 239 225 221 226 230 233 238 243 247 256 269 281 291 294 300 304 306 302 302 307 308 310 312 318 324 326 325 323 323 320 314 309 308 306 299
151 125 11 347 310 270 249 267 280 234 246 243 240 235 231 227 225 229 231 235 240 243 244 247 256 266 272 280 286 293 300 301 302 307 307 307 309 313 320 322 325 326 325 323 318 312 312 311 306
354 141 179 216 259 270 268 254 253 238 232 234 236 236 235 233 232 234 235 236 239 242 243 242 247 256 264 270 273 282 290 294 296 301 308 309 312 314 318 326 331 333 334 331 326 321 321 323 326
170 183 211 223 269 273 287 271 211 247 264 256 258 255 247 242 243 243 243 240 240 240 238 238 240 245 250 254 259 265 277 286 287 292 301 307 311 316 321 328 333 339 342 342 340 339 335 335 337
236 224 208 239 238 241 275 278 98 255 275 276 276 271 260 252 252 251 248 243 239 239 238 236 236 237 239 242 249 255 262 269 274 281 295 299 306 318 324 327 334 342 345 345 345 345 344 342 341
Height
1506 1509 1512 1516 1516 1511 1504 1503 1506 1510 1512 1515 1516 1515 1514 1517 1519 1527 1530 1528 1530 1531 1533 1534 1535 1536 1538 1539 1540 1541 1542 1542 1543 1543 1543 1544 1544 1544 1544 1544 1544 1544 1544 1544 1544 1543 1543 1543 1543
1506 1509 1514 1514 1507 1504 1502 1502 1507 1508 1512 1516 1517 1518 1518 1522 1525 1527 1528 1528 1530 1532 1533 1534 1535 1537 1538 1539 1540 1541 1542 1542 1543 1543 1544 1544 1544 1544 1544 1544 1544 1544 1544 1544 1544 1544 1544 1544 1544
1505 1508 1512 1508 1502 1495 1497 1502 1505 1511 1514 1515 1517 1520 1521 1524 1526 1527 1528 1529 1531 1532 1533 1534 1535 1537 1538 1539 1540 1541 1541 1542 1543 1543 1543 1544 1544 1544 1544 1544 1544 1544 1544 1544 1544 1544 1544 1544 1544
1506 1510 1510 1504 1499 1499 1499 1504 1507 1511 1515 1516 1517 1521 1524 1526 1526 1527 1528 1529 1531 1533 1534 1535 1536 1537 1538 1539 1540 1540 1541 1542 1542 1543 1543 1543 1544 1544 1544 1544 1544 1544 1544 1544 1544 1544 1544 1544 1544
1504 1506 1504 1500 1499 1502 1505 1508 1509 1509 1512 1516 1517 1520 1524 1526 1526 1527 1528 1530 1531 1533 1534 1535 1536 1537 1538 1539 1539 1540 1541 1541 1542 1542 1542 1543 1543 1543 1543 1543 1543 1543 1543 1543 1543 1544 1544 1544 1544
1504 1501 1497 1496 1500 1505 1507 1510 1510 1510 1514 1517 1518 1520 1525 1527 1527 1528 1529 1530 1532 1533 1534 1534 1535 1536 1537 1538 1539 1539 1540 1540 1541 1541 1542 1542 1542 1542 1543 1543 1543 1543 1543 1543 1543 1543 1543 1543 1543
1501 1497 1492 1493 1500 1504 1508 1510 1510 1511 1513 1517 1519 1521 1526 1527 1528 1528 1530 1531 1532 1533 1534 1534 1535 1536 1537 1537 1538 1538 1539 1539 1540 1540 1541 1541 1541 1541 1541 1541 1542 1542 1541 1541 1542 1542 1542 1542 1542
1499 1498 1496 1495 1498 1503 1509 1511 1513 1513 1516 1519 1521 1521 1526 1528 1528 1529 1530 1531 1532 1533 1534 1534 1535 1535 1536 1536 1537 1537 1538 1538 1538 1539 1539 1539 1540 1540 1540 1540 1540 1540 1540 1540 1540 1540 1541 1541 1541
1499 1497 1494 1496 1497 1503 1508 1510 1514 1516 1517 1520 1521 1523 1525 1526 1528 1530 1531 1532 1532 1533 1533 1534 1534 1535 1535 1535 1536 1536 1536 1536 1537 1537 1537 1538 1538 1538 1538 1538 1538 1538 1538 1538 1538 1538 1539 1539 1539
1499 1496 1496 1500 1500 1503 1508 1510 1514 1516 1518 1521 1523 1524 1525 1527 1529 1530 1531 1532 1532 1533 1533 1533 1534 1534 1534 1534 1534 1534 1535 1535 1535 1535 1535 1535 1536 1536 1536 1536 1536 1536 1536 1536 1536 1536 1536 1537 1537
1500 1499 1502 1504 1505 1506 1509 1512 1515 1515 1518 1521 1523 1525 1526 1528 1529 1530 1531 1532 1532 1533 1533 1533 1533 1533 1533 1533 1533 1533 1533 1533 1533 1533 1533 1533 1533 1533 1533 1533 1533 1533 1533 1533 1533 1534 1534 1534 1534
1502 1505 1504 1506 1507 1509 1510 1513 1516 1518 1521 1523 1525 1526 1527 1529 1530 1531 1531 1532 1532 1533 1532 1532 1532 1532 1531 1531 1531 1531 1531 1531 1531 1531 1531 1531 1530 1530 1530 1530 1530 1530 1530 1530 1530 1531 1531 1531 1531
1502 1506 1508 1509 1509 1511 1512 1514 1517 1521 1523 1524 1525 1527 1528 1529 1530 1531 1531 1532 1532 1532 1532 1532 1531 1531 1530 1530 1530 1530 1529 1529 1528 1528 1528 1528 1528 1527 1527 1527 1527 1527 1527 1527 1527 1527 1527 1527 1527
1504 1506 1509 1511 1512 1513 1514 1517 1519 1524 1524 1526 1527 1528 1529 1530 1531 1531 1531 1532 1532 1532 1531 1531 1530 1530 1529 1529 1528 1528 1527 1527 1526 1526 1525 1525 1525 1524 1524 1524 1523 1523 1523 1523 1523 1523 1523 1523 1523
1507 1507 1510 1514 1514 1516 1516 1519 1522 1525 1526 1527 1528 1528 1529 1530 1530 1531 1531 1531 1531 1531 1530 1530 1529 1528 1528 1527 1526 1526 1525 1524 1524 1523 1523 1522 1522 1521 1521 1520 1520 1519 1519 1519 1518 1519 1519 1519 1519
1507 1506 1509 1516 1516 1517 1517 1519 1524 1525 1526 1527 1528 1529 1529 1529 1530 1530 1530 1530 1530 1529 1529 1528 1528 1527 1526 1525 1524 1523 1523 1522 1521 1521 1520 1519 1519 1518 1518 1517 1516 1516 1515 1515 1514 1514 1514 1514 1514
1505 1505 1509 1516 1518 1517 1516 1518 1524 1525 1526 1526 1527 1528 1529 1529 1529 1529 1529 1529 1529 1528 1528 1527 1526 1525 1524 1523 1522 1521 1520 1519 1519 1518 1517 1517 1516 1515 1514 1514 1513 1512 1512 1511 1511 1510 1510 1510 1509
1505 1506 1511 1514 1519 1518 1517 1519 1523 1524 1525 1525 1526 1527 1527 1528 1528 1528 1528 1528 1527 1527 1526 1525 1524 1523 1522 1521 1520 1519 1518 1517 1516 1515 1514 1514 1513 1512 1511 1510 1509 1509 1508 1507 1507 1506 1506 1505 1505
1506 1508 1512 1518 1521 1519 1518 1519 1520 1523 1523 1524 1524 1525 1526 1526 1527 1526 1526 1526 1526 1525 1524 1523 1522 1521 1520 1519 1518 1517 1516 1515 1514 1513 1512 1511 1510 1509 1508 1507 1506 1505 1504 1503 1503 1502 1501 1501 1501
1509 1511 1515 1520 1522 1520 1519 1519 1518 1520 1520 1521 1522 1522 1523 1524 1524 1524 1524 1524 1524 1523 1522 1521 1520 1519 1518 1517 1515 1514 1513 1512 1511 1510 1509 1508 1507 1506 1505 1504 1502 1501 1500 1499 1499 1498 1497 1496 1497
1515 1514 1516 1519 1522 1522 1520 1513 1514 1517 1519 1520 1520 1520 1521 1521 1522 1522 1522 1522 1522 1521 1520 1519 1518 1517 1516 1515 1513 1512 1510 1509 1509 1507 1506 1505 1504 1503 1502 1501 1499 1498 1497 1496 1495 1494 1493 1492 1492
1518 1522 1521 1521 1518 1518 1521 1513 1506 1511 1514 1515 1516 1517 1518 1518 1519 1519 1520 1520 1520 1519 1518 1517 1516 1515 1514 1512 1511 1510 1508 1507 1506 1505 1504 1502 1501 1500 1499 1497 1496 1495 1493 1492 1491 1490 1490 1489 1488
1523 1525 1524 1523 1521 1521 1520 1518 1503 1509 1509 1508 1511 1513 1515 1516 1516 1517 1517 1517 1517 1517 1516 1515 1514 1513 1511 1510 1509 1507 1506 1505 1503 1502 1501 1500 1499 1497 1496 1494 1493 1492 1490 1489 1488 1487 1486 1486 1485
1526 1525 1525 1524 1521 1521 1520 1520 1505 1503 1503 1504 1507 1510 1511 1513 1514 1514 1515 1515 1515 1514 1514 1513 1512 1510 1509 1508 1506 1505 1504 1502 1501 1499 1498 1497 1496 1494 1493 1491 1490 1489 1487 1486 1485 1484 1483 1482 1481
1526 1523 1522 1520 1518 1514 1524 1522 1507 1500 1503 1504 1506 1508 1509 1510 1511 1512 1512 1512 1512 1512 1511 1510 1509 1508 1507 1505 1504 1502 1501 1500 1498 1497 1495 1494 1492 1491 1490 1488 1487 1486 1484 1483 1482 1480 1479 1478 1477
1526 1525 1523 1519 1514 1511 1523 1516 1502 1502 1504 1505 1506 1506 1507 1508 1508 1509 1510 1510 1509 1509 1509 1508 1507 1506 1504 1503 1502 1500 1499 1497 1495 1494 1492 1491 1489 1488 1487 1485 1484 1483 1481 1480 1478 1477 1476 1474 1473
1526 1526 1528 1526 1527 1521 1509 1508 1501 1501 1502 1503 1504 1505 1505 1506 1506 1507 1507 1507 1507 1507 1506 1505 1504 1503 1502 1500 1499 1498 1496 1494 1493 1491 1490 1488 1486 1485 1484 1482 1481 1480 1478 1477 1475 1474 1472 1471 1470
1531 1529 1529 1526 1522 1512 1506 1505 1499 1497 1498 1500 1502 1502 1503 1504 1504 1504 1505 1505 1504 1504 1503 1502 1501 1500 1499 1498 1496 1495 1494 1492 1490 1489 1487 1486 1484 1482 1481 1480 1478 1477 1475 1474 1472 1471 1469 1468 1466
1531 1531 1528 1526 1525 1518 1507 1498 1495 1497 1498 1498 1499 1500 1501 1502 1502 1502 1502 1502 1501 1501 1500 1499 1498 1497 1496 1495 1494 1492 1491 1489 1488 1486 1485 1483 1481 1480 1478 1477 1476 1474 1473 1471 1470 1468 1466 1465 1463
1529 1527 1527 1525 1523 1523 1516 1503 1496 1498 1498 1499 1498 1499 1499 1499 1499 1499 1499 1498 1498 1497 1496 1495 1495 1494 1493 1492 1491 1489 1488 1487 1485 1484 1482 1481 1479 1477 1476 1475 1473 1472 1470 1469 1467 1465 1464 1462 1460